This is the latest recevied weather packets stored in our database for station/object KK7PZE-13. If no packets are shown the sender has not sent any weather packets the latest 1 day(s).
| Time | Temp. | Humidity | Pressure | Rain* | Wind** | Luminosity | Snow |
|---|---|---|---|---|---|---|---|
| 1778058876 | 12.78° C | 45% | 1013.1 hPa | 0 mm | - | - | - |
| 1778058275 | 12.78° C | 45% | 1013.1 hPa | 0 mm | - | - | - |
| 1778057076 | 12.78° C | 44% | 1013.1 hPa | 0 mm | - | - | - |
| 1778055907 | 12.78° C | 44% | 1013 hPa | 0 mm | - | - | - |
| 1778055875 | 12.78° C | 44% | 1013 hPa | 0 mm | - | - | - |
| 1778054677 | 12.78° C | 43% | 1012.9 hPa | 0 mm | - | - | - |
| 1778054077 | 13.33° C | 42% | 1012.9 hPa | 0 mm | - | - | - |
| 1778053511 | 13.89° C | 42% | 1012.9 hPa | 0 mm | - | - | - |
| 1778052875 | 13.89° C | 41% | 1013 hPa | 0 mm | - | - | - |
| 1778052503 | 13.89° C | 41% | 1012.6 hPa | 0 mm | - | - | - |
| 1778052275 | 13.89° C | 41% | 1012.6 hPa | 0 mm | - | - | - |
| 1778051676 | 13.89° C | 41% | 1012.6 hPa | 0 mm | - | - | - |
| 1778051075 | 13.89° C | 40% | 1012.9 hPa | 0 mm | - | - | - |
| 1778050475 | 14.44° C | 39% | 1012.8 hPa | 0 mm | - | - | - |
| 1778049876 | 15° C | 39% | 1012.6 hPa | 0 mm | - | - | - |
| 1778049275 | 14.44° C | 39% | 1012.8 hPa | 0 mm | - | - | - |
| 1778048675 | 14.44° C | 38% | 1012.5 hPa | 0 mm | - | - | - |
| 1778047475 | 15.56° C | 37% | 1012.8 hPa | 0 mm | - | - | - |
| 1778046875 | 15.56° C | 36% | 1012.6 hPa | 0 mm | - | - | - |
| 1778046275 | 15.56° C | 36% | 1012.4 hPa | 0 mm | - | - | - |
| 1778045675 | 16.11° C | 34% | 1012.4 hPa | 0 mm | - | - | - |
| 1778045286 | 16.67° C | 33% | 1012.3 hPa | 0 mm | - | - | - |
| 1778044475 | 17.22° C | 33% | 1012.4 hPa | 0 mm | - | - | - |
| 1778043875 | 17.22° C | 33% | 1012.1 hPa | 0 mm | - | - | - |
| 1778043275 | 17.22° C | 32% | 1012 hPa | 0 mm | - | - | - |
* Rain latest hour (hover to see other rain measurements)
** Current wind speed in m/s (hover to see current wind gust speed)